Weather in Bukhty

Russia / Republic of Dagestan     42°14′25″N   46°59′05″E
temp.,
°C
wind,
m/s
gust,
m/s
humid.,
%
clouds,
%
prec.,
mm/h
press.,
hPa
HPBL,
m
9 march, tue
tue900:00−8n1295100 0.3 1017136
03:00−9sw227283 0.3 101730
06:00−10sw22571 0.0 101825
09:00−6ne21510 0.0 1017265
12:00−4nne31590 0.0 1016651
15:00−3nne32736 0.1 1016547
18:00−6wnw118321 0.1 101891
21:00−9ssw335819 0.2 102066
10 march, wed
wed1000:00−9sw22631 0.0 102046
03:00−10ssw22584 0.0 102262
06:00−10w11646 0.0 102344
09:00−7ne21618 0.0 1023409
12:00−5nne32613 0.0 1022800
15:00−5nne338451 0.1 1021397
18:00−6nne1294100 0.5 1022117
21:00−8n118474 0.9 102385
11 march, thu
thu1100:00−9nne118566 0.1 102292
03:00−9ne228975 0.1 1021118
06:00−10ene229675 0.1 1020207
09:00−9ne338888 0.3 1020368
12:00−6ne3385100 0.3 1018461
15:00−7ne3387100 1.2 1017418
18:00−9ne3394100 0.8 1018324
21:00−11ne2394100 1.4 1019281
12 march, fri
fri1200:00−12ene2294100 0.4 1018228
03:00−12ene2295100 0.8 1018248
06:00−12ene2294100 0.9 1020268
09:00−12ne3391100 2.1 1021386
12:00−12ne3391100 1.1 1022466
15:00−12nne4495100 2.5 1023417
18:00−14ne3397100 1.5 1025279
21:00−15nne2297100 2.4 1028139
13 march, sat
sat1300:00−16nw1198100 0.5 103039
03:00−20sw119186 0.6 103020
06:00−20sw12791 0.0 103320
09:00−14nne11780 0.0 1033155
12:00−11nne21840 0.0 1033318
15:00−10ne218729 0.1 1032352
18:00−15sw119589 0.0 103321
21:00−14sw336652 0.0 103420